Temperature
18 17 16 14 14 13 12 12 11 11 11 11 10 10 9 9 9 9 9 9 8 8 8 8 8 8 8 8 9 9 9 10 10 10 10 9 9 9 9 10 11 11 11
19 18 16 14 14 13 12 12 11 11 11 11 10 10 10 9 9 9 9 8 8 8 8 8 8 8 8 8 9 9 9 10 10 10 9 9 8 8 8 8 9 9 9
19 18 17 15 14 13 12 12 11 11 11 11 10 10 10 9 9 9 9 8 8 8 8 8 8 8 8 8 9 9 9 10 9 9 9 9 8 8 8 8 8 8 8
19 18 17 15 14 13 12 12 11 11 11 11 10 10 10 9 9 9 9 8 8 8 8 8 8 8 9 9 9 9 10 10 9 9 9 8 8 7 7 7 7 7 8
19 18 17 16 14 13 12 11 11 11 11 11 10 10 10 9 9 9 9 9 9 9 9 8 9 9 9 9 9 10 10 10 9 9 9 8 7 6 6 7 7 7 7
19 18 17 15 13 12 11 11 11 11 11 10 10 10 10 9 9 9 9 9 9 9 9 9 9 9 9 9 10 10 10 9 9 9 8 8 7 6 6 6 6 6 7
19 18 17 15 13 12 11 11 11 11 10 10 10 10 9 9 9 9 9 9 9 9 9 9 9 9 9 9 9 10 9 9 9 9 8 8 7 6 6 6 6 6 6
18 17 16 15 13 12 11 11 10 10 10 10 10 10 9 9 9 9 9 9 9 9 9 9 9 9 9 9 9 9 9 9 9 9 8 8 7 6 6 6 6 6 6
17 17 16 14 13 12 11 11 10 10 10 10 10 9 9 9 9 9 9 9 9 9 9 9 9 9 9 9 9 9 9 9 9 8 8 8 7 6 6 6 6 6 6
17 16 15 14 13 12 11 10 10 10 10 9 9 9 9 9 9 9 9 9 9 9 9 9 9 9 9 9 9 9 9 9 9 8 8 8 7 7 6 6 6 6 6
17 16 15 14 13 12 11 10 10 10 9 9 9 9 9 9 9 9 9 9 9 8 8 8 8 8 8 8 8 9 9 9 8 8 8 8 7 7 6 6 6 6 6
18 17 16 15 14 13 11 10 10 10 9 9 9 9 9 10 9 9 9 9 9 8 8 8 8 8 8 8 8 8 8 8 8 8 8 8 7 7 6 6 6 6 6
18 17 17 15 14 13 12 11 10 9 9 9 9 9 9 9 9 9 9 9 9 9 9 8 8 8 8 8 8 8 8 8 8 8 8 7 7 7 6 5 5 5 5
17 17 16 15 14 13 12 11 11 10 10 10 9 9 9 9 9 9 9 9 9 9 8 8 8 8 8 8 8 8 8 8 8 7 7 7 7 7 6 5 5 5 5
17 16 16 15 14 13 12 12 11 11 10 10 10 9 9 9 9 9 9 9 8 8 8 8 8 8 8 7 7 7 7 7 7 7 7 7 7 7 6 5 4 4 4
17 16 16 15 14 13 13 12 12 11 10 10 10 9 9 9 9 9 8 8 8 8 8 8 7 7 7 7 7 7 7 7 7 7 7 7 7 7 6 6 5 4 4
17 16 16 15 14 14 13 12 12 11 10 10 10 9 9 9 9 8 8 8 8 8 7 7 7 7 7 7 7 7 7 7 7 7 7 7 6 6 6 6 6 5 4
17 16 16 15 14 14 13 12 11 11 10 10 10 9 9 9 8 8 8 8 8 7 7 7 7 7 7 7 7 7 7 7 7 7 6 6 6 6 6 6 6 6 5
17 17 16 15 15 14 13 12 11 11 10 10 9 9 9 8 8 8 8 8 7 7 7 7 7 7 7 7 7 6 6 6 6 6 6 6 6 6 6 6 6 6 6
17 16 16 15 14 13 12 12 11 10 10 10 10 9 9 9 8 8 8 8 7 7 7 7 6 6 6 6 6 6 6 6 6 6 6 7 7 7 7 6 6 6 6
17 16 15 15 14 13 13 12 11 11 11 10 10 9 9 9 8 8 8 8 7 7 7 7 6 6 6 6 5 5 6 6 6 6 7 7 7 7 7 7 7 6 6
16 15 15 14 13 13 12 12 11 11 10 10 10 9 9 9 9 8 8 8 7 7 7 6 6 6 5 5 5 4 4 5 6 6 7 7 7 7 7 7 7 6 6
15 14 14 13 13 12 12 11 11 11 10 10 10 10 10 9 9 8 8 8 7 7 7 6 6 5 5 5 5 4 3 3 4 5 5 5 5 5 6 6 6 6 6
14 14 13 13 13 12 12 11 11 11 11 11 10 10 9 9 9 8 8 7 7 7 6 6 6 5 5 4 4 4 4 3 2 3 3 4 4 4 4 4 4 5 5
13 13 13 12 12 12 11 11 11 10 10 10 10 10 9 9 9 8 8 7 7 7 6 6 6 5 5 4 4 4 3 3 2 0 0 2 3 3 4 3 3 3 3
12 12 12 12 12 11 11 10 10 10 10 10 9 9 9 9 8 8 8 7 7 7 6 6 5 5 4 4 4 3 3 2 2 1 0 1 1 3 3 3 3 3 2
Wind_Speed
9 16 24 23 21 19 17 15 14 13 12 11 10 10 9 9 9 10 10 10 11 11 12 12 13 13 13 14 14 15 16 17 18 19 19 18 18 18 18 18 18 18 19
11 22 25 24 22 20 18 17 15 14 12 11 10 10 9 9 9 9 9 9 10 11 11 11 12 12 12 13 13 14 15 16 17 17 17 17 16 17 17 18 17 17 18
12 24 25 25 23 21 19 17 16 15 13 12 11 10 10 9 9 8 8 8 9 9 10 10 10 11 11 12 12 13 13 15 15 16 17 17 14 16 17 17 17 17 17
17 24 23 25 24 22 20 18 17 16 14 13 12 11 10 9 8 8 8 7 8 8 8 9 9 9 10 10 11 11 12 13 14 16 17 16 13 14 15 16 16 16 17
17 23 23 26 24 22 21 19 18 17 15 14 13 11 10 9 9 8 7 7 7 7 7 7 8 8 8 9 9 10 10 11 13 15 16 16 13 12 14 14 14 15 15
13 21 22 26 24 23 21 20 19 17 16 15 14 13 11 10 9 8 8 7 6 6 6 6 6 6 7 7 8 8 8 9 11 13 14 14 11 10 12 12 12 13 13
12 19 21 26 24 23 22 20 19 18 17 16 15 13 12 11 10 9 8 7 6 6 5 5 5 5 5 5 6 6 6 7 8 10 12 12 9 9 9 10 10 10 11
11 16 19 25 24 23 22 21 20 19 18 17 15 14 13 12 11 10 9 8 7 6 5 4 4 3 3 3 4 5 5 4 5 7 9 10 7 6 7 7 7 8 9
11 14 16 20 22 23 22 21 20 19 18 17 16 15 14 13 12 11 10 9 8 7 5 4 3 3 2 2 3 3 3 2 2 4 7 8 6 4 5 5 5 6 6
8 10 14 15 18 20 21 22 21 20 19 18 17 16 15 14 13 12 11 10 9 8 7 6 5 4 3 2 2 3 3 2 1 3 5 7 5 2 2 2 2 3 4
10 9 12 13 14 17 19 20 21 21 20 19 17 17 15 13 11 10 11 11 10 9 8 8 7 6 5 4 3 4 3 4 3 5 6 8 5 3 1 1 0 0 1
16 13 10 11 12 15 17 18 18 18 18 18 16 16 14 12 11 9 10 12 12 11 10 10 9 8 6 4 3 2 3 4 6 7 9 9 8 6 5 4 4 3 3
14 14 13 11 13 14 14 15 14 15 15 16 16 15 14 12 11 10 9 10 9 8 7 7 5 4 4 5 6 5 6 7 9 10 11 11 11 10 9 8 7 7 6
10 14 13 11 11 13 14 13 13 13 13 13 16 17 15 12 10 10 10 10 9 8 7 7 6 5 6 7 8 9 10 10 12 13 14 13 14 13 12 12 11 10 9
11 12 12 11 11 11 11 11 12 13 14 15 16 18 18 14 11 12 11 12 12 11 10 9 9 9 9 10 11 11 12 14 15 16 16 16 16 16 16 15 14 14 13
13 12 11 13 12 12 10 9 10 13 14 15 17 19 20 18 15 13 12 12 14 15 15 13 12 11 11 11 11 14 15 16 17 18 19 19 19 19 19 19 18 17 16
10 10 12 12 11 11 10 11 11 13 15 14 16 19 21 20 18 16 12 12 16 18 16 14 12 11 8 9 9 13 15 17 18 19 20 21 21 21 22 21 21 20 19
7 8 10 12 12 12 10 10 10 12 14 14 16 18 20 21 20 17 13 13 17 17 15 10 7 6 7 7 8 8 11 14 17 19 20 21 21 21 23 24 24 23 23
5 6 8 10 11 12 9 8 9 10 12 14 15 16 18 20 20 18 15 15 16 14 12 10 8 7 8 10 10 9 8 10 14 17 18 21 22 23 23 25 26 26 25
2 4 6 7 8 8 6 5 4 5 7 11 14 16 18 19 20 19 16 15 14 9 9 9 10 9 8 8 9 10 9 9 11 13 17 20 22 24 25 25 25 25 28
5 2 3 5 5 6 4 5 5 6 5 5 11 16 18 19 20 19 15 13 12 11 13 13 10 9 9 5 4 6 8 12 15 15 15 16 19 24 25 25 24 23 23
6 3 1 2 4 6 5 4 3 3 4 5 8 14 19 20 21 20 16 12 11 11 12 12 11 7 7 7 6 4 6 6 8 13 13 14 15 16 18 23 24 24 23
8 4 2 1 3 4 4 3 2 0 2 3 6 8 13 19 20 21 19 16 12 12 14 15 15 13 11 9 10 7 6 8 4 5 8 11 11 11 11 16 21 24 24
8 5 4 2 1 2 4 4 6 6 7 8 6 6 8 14 18 21 20 17 13 12 15 16 15 14 13 12 7 12 12 6 6 5 4 6 8 10 11 12 15 21 24
7 7 5 4 2 0 2 4 5 8 9 7 5 7 8 8 13 17 18 15 14 14 15 16 15 15 15 15 12 7 11 11 10 9 11 7 5 8 11 12 11 14 20
8 8 7 6 5 2 1 3 5 8 9 9 10 9 8 7 8 12 14 14 14 14 16 17 17 15 16 17 15 12 9 8 9 12 17 13 11 7 10 11 11 12 18
Wind_Direction
197 185 184 176 173 172 170 167 163 159 154 148 141 134 127 118 112 104 97 91 87 82 78 75 72 70 69 69 68 66 64 62 58 54 52 57 67 70 70 69 64 60 63
168 178 183 176 175 175 174 171 168 164 161 156 149 143 138 128 119 113 105 97 91 87 83 78 75 73 72 72 72 70 68 64 59 53 47 42 57 70 69 68 68 66 65
157 173 182 177 177 177 176 174 171 169 166 163 157 153 147 139 131 122 114 105 97 91 86 82 79 77 75 75 74 73 71 66 58 50 41 32 38 68 69 68 68 67 66
162 171 181 178 178 178 178 176 174 173 171 169 165 161 155 150 143 133 125 116 107 100 94 89 85 82 79 79 78 78 74 66 56 46 36 28 29 66 68 67 66 65 65
165 173 180 178 180 180 180 179 178 177 176 174 172 169 166 161 155 146 138 130 120 112 104 96 91 87 85 85 84 83 78 66 52 43 34 27 27 65 69 67 66 65 63
166 174 182 180 182 183 183 182 182 181 181 180 179 176 174 171 166 159 151 145 137 128 119 109 100 94 91 92 92 89 84 68 50 41 30 23 22 62 70 68 66 65 62
166 174 184 182 184 185 186 185 185 186 185 185 184 183 181 179 175 170 166 162 157 150 139 127 114 104 98 99 104 100 94 74 50 35 22 14 16 65 71 68 66 64 62
165 173 184 186 188 188 189 189 189 190 190 190 189 189 189 187 184 181 180 178 175 171 163 153 140 124 114 110 114 118 111 82 47 25 9 2 11 64 71 68 66 64 63
167 173 185 192 191 192 192 192 192 193 194 194 195 195 195 194 192 191 190 191 190 188 186 183 175 167 157 145 138 140 140 118 44 360 351 348 359 58 72 70 66 65 64
173 181 188 195 192 192 193 195 195 196 198 199 199 199 199 199 200 200 199 201 202 203 204 206 208 208 208 206 195 178 173 164 245 308 320 326 332 17 70 75 67 64 64
192 196 193 196 192 189 190 196 197 199 200 202 203 202 201 200 201 204 199 208 212 214 217 220 224 227 229 232 236 214 190 187 236 271 286 301 299 285 266 239 252 344 47
201 200 197 196 192 187 189 194 196 197 199 201 200 200 196 190 192 196 200 213 221 224 227 229 232 235 229 220 259 249 186 215 240 259 270 282 277 269 262 253 250 253 255
202 199 200 197 192 188 188 188 190 191 192 194 193 191 185 183 186 190 200 216 230 237 237 241 254 227 207 215 233 242 236 238 245 254 263 272 271 266 262 256 252 250 250
202 204 201 194 193 193 189 188 187 187 188 187 189 187 180 177 183 188 198 210 221 228 228 229 233 231 228 230 236 242 244 244 247 252 258 263 266 265 263 260 255 251 250
213 207 200 195 195 192 190 190 190 190 191 190 189 190 188 184 188 195 203 211 220 225 226 227 231 234 237 240 242 242 244 245 247 250 254 258 262 263 263 261 259 255 252
216 208 197 198 196 191 195 195 194 193 193 191 193 195 195 194 194 196 204 212 219 223 226 227 229 231 237 240 244 243 244 247 248 249 251 254 258 261 262 261 260 258 256
218 203 196 199 194 195 199 199 196 193 193 195 199 201 201 201 200 201 205 213 220 223 225 228 233 235 241 241 243 245 245 246 246 247 248 249 251 255 259 260 260 259 257
209 196 195 199 197 200 202 200 198 195 197 203 203 203 206 207 206 204 210 220 221 218 217 217 219 224 235 237 243 244 243 243 244 246 246 246 245 247 250 254 257 258 257
200 186 186 194 195 198 197 197 200 199 205 208 206 208 211 212 211 210 219 224 216 212 215 222 216 214 231 238 243 246 242 243 246 247 244 243 241 241 242 247 251 253 254
140 168 178 191 190 181 179 184 198 212 216 215 214 218 216 217 215 217 226 225 211 209 218 219 226 218 227 235 249 255 247 241 241 241 243 244 240 238 237 238 241 245 248
54 92 165 180 177 163 167 187 205 226 224 225 225 225 221 221 219 219 230 225 214 221 227 222 221 225 232 213 241 274 263 244 243 242 239 239 239 237 234 233 233 235 240
34 35 78 180 180 182 185 177 190 205 223 224 228 230 227 226 224 225 228 230 222 226 230 224 214 217 224 191 195 234 290 292 245 239 235 234 237 235 233 233 231 230 231
21 8 9 214 192 190 175 153 140 132 294 257 235 235 232 230 229 229 231 230 227 224 232 229 221 220 231 214 202 200 225 248 291 255 234 233 232 228 230 232 231 231 230
6 7 14 17 157 181 171 182 201 220 240 244 239 239 236 229 231 231 233 232 232 229 233 233 226 224 226 231 215 221 229 212 233 287 260 241 234 230 229 230 231 230 229
11 17 18 22 26 96 192 208 221 242 252 267 269 261 254 238 233 234 233 233 235 235 235 236 232 225 224 231 224 211 229 238 233 245 268 256 241 231 228 227 227 227 227
14 19 20 21 12 355 268 240 237 252 264 276 278 273 270 258 245 238 236 235 237 238 238 238 236 231 230 230 231 223 212 213 215 224 245 254 255 237 224 227 226 226 226
Height
1537 1539 1541 1543 1545 1547 1549 1551 1552 1553 1555 1555 1556 1557 1557 1558 1558 1558 1558 1558 1558 1558 1558 1558 1557 1557 1556 1556 1556 1556 1556 1556 1556 1556 1556 1556 1557 1556 1556 1556 1556 1556 1557
1537 1538 1540 1542 1544 1546 1548 1550 1552 1553 1554 1555 1556 1557 1557 1558 1558 1559 1559 1559 1559 1559 1559 1558 1558 1557 1557 1557 1556 1556 1556 1556 1557 1557 1557 1557 1557 1558 1557 1557 1557 1557 1557
1536 1537 1539 1541 1543 1546 1548 1550 1551 1553 1554 1555 1556 1557 1558 1558 1558 1559 1559 1559 1559 1559 1559 1558 1558 1558 1558 1557 1557 1557 1557 1557 1557 1558 1558 1558 1558 1559 1559 1558 1558 1558 1558
1535 1537 1538 1540 1542 1545 1547 1549 1551 1552 1554 1555 1556 1557 1558 1558 1559 1559 1559 1559 1559 1559 1559 1559 1558 1558 1558 1558 1558 1558 1558 1558 1558 1559 1559 1559 1559 1560 1560 1560 1559 1559 1559
1534 1536 1537 1539 1541 1544 1546 1548 1550 1552 1554 1555 1556 1557 1558 1558 1559 1559 1559 1559 1559 1559 1559 1559 1559 1559 1559 1559 1559 1559 1559 1559 1559 1559 1559 1559 1560 1561 1560 1560 1560 1560 1559
1534 1535 1537 1538 1541 1543 1545 1548 1550 1551 1553 1554 1555 1557 1557 1558 1558 1559 1559 1559 1559 1559 1559 1559 1559 1559 1559 1559 1559 1560 1560 1560 1560 1560 1560 1560 1560 1561 1561 1560 1560 1560 1560
1533 1534 1536 1538 1540 1542 1545 1547 1549 1551 1552 1554 1555 1556 1557 1558 1558 1559 1559 1559 1559 1559 1560 1560 1560 1560 1560 1560 1560 1560 1560 1560 1560 1560 1560 1560 1560 1561 1561 1561 1560 1560 1560
1532 1533 1535 1537 1539 1541 1543 1545 1548 1550 1551 1553 1554 1556 1557 1557 1558 1558 1559 1559 1559 1559 1560 1560 1560 1560 1560 1560 1560 1560 1560 1560 1560 1560 1560 1560 1560 1561 1560 1560 1560 1560 1559
1530 1532 1533 1535 1537 1540 1542 1544 1546 1548 1550 1552 1553 1555 1556 1557 1557 1558 1558 1559 1559 1559 1559 1559 1560 1560 1560 1560 1560 1560 1560 1560 1560 1560 1560 1560 1560 1560 1560 1560 1559 1559 1559
1528 1529 1531 1533 1535 1537 1540 1542 1544 1546 1549 1550 1552 1553 1555 1556 1557 1557 1558 1558 1558 1559 1559 1559 1559 1559 1559 1559 1559 1559 1559 1559 1559 1559 1559 1559 1559 1559 1559 1559 1558 1558 1558
1524 1526 1528 1530 1532 1535 1537 1540 1542 1544 1546 1549 1550 1552 1553 1554 1555 1556 1557 1557 1558 1558 1558 1558 1558 1558 1558 1558 1558 1558 1558 1558 1558 1558 1558 1558 1558 1558 1558 1558 1557 1557 1557
1521 1523 1525 1527 1529 1532 1534 1537 1539 1542 1544 1546 1548 1549 1551 1552 1554 1555 1555 1556 1556 1557 1557 1557 1557 1557 1557 1557 1557 1557 1557 1557 1557 1556 1556 1556 1556 1556 1556 1556 1556 1555 1555
1518 1520 1522 1524 1526 1529 1531 1534 1536 1539 1541 1543 1545 1547 1549 1550 1552 1552 1554 1554 1555 1555 1555 1556 1555 1555 1556 1555 1555 1555 1555 1555 1555 1554 1554 1554 1554 1554 1554 1554 1553 1553 1553
1514 1516 1519 1521 1523 1526 1528 1531 1533 1536 1538 1540 1542 1544 1546 1547 1549 1550 1552 1552 1553 1553 1554 1554 1554 1554 1553 1553 1553 1553 1552 1552 1552 1552 1551 1551 1551 1551 1551 1551 1551 1551 1551
1510 1513 1515 1518 1520 1523 1525 1528 1530 1532 1535 1537 1539 1541 1543 1545 1546 1548 1549 1550 1550 1551 1551 1551 1551 1551 1550 1550 1550 1549 1549 1549 1549 1548 1548 1548 1547 1547 1547 1547 1548 1548 1548
1505 1508 1512 1514 1517 1520 1522 1524 1527 1529 1532 1534 1536 1538 1540 1541 1543 1544 1545 1546 1547 1547 1548 1547 1547 1547 1546 1546 1545 1545 1545 1545 1544 1544 1544 1543 1543 1543 1542 1543 1543 1544 1544
1502 1505 1507 1511 1514 1516 1519 1521 1524 1526 1529 1530 1532 1535 1536 1538 1539 1540 1541 1541 1542 1543 1543 1543 1542 1542 1541 1541 1540 1540 1540 1539 1539 1539 1538 1538 1538 1537 1537 1537 1538 1538 1539
1499 1501 1504 1507 1509 1512 1515 1518 1520 1522 1525 1526 1529 1530 1532 1533 1534 1535 1535 1536 1537 1538 1538 1537 1537 1535 1535 1534 1534 1534 1533 1533 1532 1532 1532 1531 1531 1531 1531 1531 1531 1532 1532
1498 1499 1501 1504 1506 1509 1512 1515 1517 1519 1520 1522 1524 1525 1527 1528 1529 1529 1529 1530 1531 1531 1531 1531 1530 1529 1528 1528 1527 1526 1525 1524 1524 1524 1523 1523 1523 1524 1524 1524 1525 1525 1525
1498 1499 1500 1502 1504 1506 1509 1511 1513 1515 1516 1517 1519 1520 1521 1522 1523 1523 1523 1523 1524 1523 1523 1523 1522 1521 1521 1520 1519 1516 1515 1514 1514 1513 1513 1513 1514 1514 1515 1516 1516 1516 1517
1500 1500 1500 1502 1503 1505 1506 1508 1509 1510 1512 1513 1514 1515 1515 1516 1516 1516 1516 1515 1515 1514 1514 1514 1514 1513 1512 1513 1510 1506 1504 1503 1501 1501 1502 1502 1503 1504 1504 1505 1506 1507 1508
1502 1502 1502 1502 1503 1504 1505 1507 1507 1508 1508 1509 1510 1509 1509 1509 1509 1508 1507 1507 1506 1505 1505 1505 1504 1503 1502 1503 1502 1499 1494 1490 1487 1489 1489 1489 1491 1492 1492 1493 1494 1496 1497
1505 1504 1504 1504 1504 1504 1505 1505 1505 1505 1505 1504 1504 1504 1504 1503 1502 1501 1500 1499 1497 1496 1495 1495 1494 1493 1492 1492 1492 1493 1489 1480 1479 1476 1477 1478 1479 1480 1482 1483 1484 1485 1486
1508 1507 1506 1505 1505 1504 1504 1504 1504 1503 1501 1501 1500 1498 1497 1496 1495 1493 1492 1490 1488 1487 1485 1484 1484 1482 1482 1480 1480 1479 1479 1477 1476 1468 1466 1467 1468 1468 1471 1472 1473 1475 1476
1510 1509 1507 1506 1505 1505 1504 1503 1502 1500 1498 1497 1495 1493 1491 1490 1488 1486 1484 1482 1480 1478 1476 1475 1473 1471 1470 1469 1468 1467 1466 1465 1464 1463 1456 1454 1456 1456 1458 1460 1461 1462 1464
1512 1510 1509 1507 1506 1505 1503 1502 1500 1497 1495 1492 1490 1488 1485 1483 1481 1479 1476 1473 1471 1469 1466 1465 1463 1461 1459 1457 1457 1455 1454 1453 1451 1451 1447 1443 1443 1443 1446 1447 1448 1449 1452